Time,TemperatureF,DewpointF,PressureIn,WindDirection,WindDirectionDegrees,WindSpeedMPH,WindSpeedGustMPH,Humidity,HourlyPrecipIn,Conditions,Clouds,dailyrainin,SoftwareType,DateUTC
2013-09-27 00:00:00,74.9,70.8,29.86,North,360,4.0,12.0,87,0.00,,---,0.09,VWS V14.01,2013-09-27 04:00:00,
2013-09-27 00:01:00,74.9,70.8,29.86,North,360,5.0,6.0,87,0.00,,---,0.00,VWS V14.01,2013-09-27 04:01:00,
2013-09-27 00:06:00,74.9,70.8,29.86,North,360,5.0,7.0,87,0.00,,---,0.00,VWS V14.01,2013-09-27 04:06:00,
2013-09-27 00:10:00,74.7,70.9,29.86,North,360,6.0,7.0,88,0.00,,---,0.00,VWS V14.01,2013-09-27 04:10:00,
2013-09-27 00:11:00,74.7,70.6,29.86,North,360,7.0,7.0,87,0.00,,---,0.00,VWS V14.01,2013-09-27 04:11:00,
2013-09-27 00:16:00,74.5,70.7,29.86,North,360,6.0,9.0,88,0.00,,---,0.00,VWS V14.01,2013-09-27 04:16:00,
2013-09-27 00:20:00,74.3,70.5,29.86,North,360,4.0,9.0,88,0.00,,---,0.00,VWS V14.01,2013-09-27 04:20:00,
2013-09-27 00:21:00,74.3,70.5,29.86,North,360,4.0,4.0,88,0.00,,---,0.00,VWS V14.01,2013-09-27 04:21:00,
2013-09-27 00:26:00,74.1,70.3,29.86,North,360,5.0,8.0,88,0.00,,---,0.00,VWS V14.01,2013-09-27 04:26:00,
2013-09-27 00:30:00,74.0,70.2,29.87,North,360,1.0,8.0,88,0.00,,---,0.00,VWS V14.01,2013-09-27 04:30:00,
2013-09-27 00:31:00,73.9,70.1,29.86,North,360,3.0,4.0,88,0.00,,---,0.00,VWS V14.01,2013-09-27 04:31:00,
2013-09-27 00:36:00,73.7,70.3,29.86,North,360,1.0,11.0,89,0.00,,---,0.00,VWS V14.01,2013-09-27 04:36:00,
2013-09-27 00:40:00,73.6,70.2,29.87,North,360,5.0,11.0,89,0.00,,---,0.00,VWS V14.01,2013-09-27 04:40:00,
2013-09-27 00:41:00,73.6,70.2,29.87,North,360,5.0,7.0,89,0.00,,---,0.00,VWS V14.01,2013-09-27 04:41:00,
2013-09-27 00:46:00,73.5,70.1,29.87,North,360,4.0,9.0,89,0.00,,---,0.00,VWS V14.01,2013-09-27 04:46:00,
2013-09-27 00:50:00,73.3,69.9,29.86,North,360,5.0,9.0,89,0.00,,---,0.00,VWS V14.01,2013-09-27 04:50:00,
2013-09-27 00:51:00,73.3,69.9,29.86,North,360,4.0,5.0,89,0.00,,---,0.00,VWS V14.01,2013-09-27 04:51:00,
2013-09-27 00:56:00,73.1,69.7,29.87,North,360,1.0,7.0,89,0.00,,---,0.00,VWS V14.01,2013-09-27 04:56:00,
2013-09-27 01:00:00,73.0,69.6,29.86,North,360,5.0,7.0,89,0.00,,---,0.00,VWS V14.01,2013-09-27 05:00:00,
2013-09-27 01:01:00,73.0,69.6,29.86,North,360,4.0,5.0,89,0.00,,---,0.00,VWS V14.01,2013-09-27 05:01:00,
2013-09-27 01:06:00,72.9,69.8,29.86,North,360,0.0,5.0,90,0.00,,---,0.00,VWS V14.01,2013-09-27 05:06:00,
2013-09-27 01:10:00,72.7,69.6,29.86,North,360,3.0,7.0,90,0.00,,---,0.00,VWS V14.01,2013-09-27 05:10:00,
2013-09-27 01:11:00,72.7,69.6,29.86,North,360,3.0,3.0,90,0.00,,---,0.00,VWS V14.01,2013-09-27 05:11:00,
2013-09-27 01:16:00,72.6,69.5,29.87,North,360,5.0,6.0,90,0.00,,---,0.00,VWS V14.01,2013-09-27 05:16:00,
2013-09-27 01:20:00,72.5,69.4,29.87,North,360,3.0,7.0,90,0.00,,---,0.00,VWS V14.01,2013-09-27 05:20:00,
2013-09-27 01:21:00,72.5,69.4,29.87,North,360,2.0,4.0,90,0.00,,---,0.00,VWS V14.01,2013-09-27 05:21:00,
2013-09-27 01:26:00,72.4,69.3,29.86,North,360,4.0,7.0,90,0.00,,---,0.00,VWS V14.01,2013-09-27 05:26:00,
2013-09-27 01:30:00,72.3,69.2,29.87,North,360,0.0,7.0,90,0.00,,---,0.00,VWS V14.01,2013-09-27 05:30:00,
2013-09-27 01:31:00,72.3,69.5,29.87,North,360,3.0,4.0,91,0.00,,---,0.00,VWS V14.01,2013-09-27 05:31:00,
2013-09-27 01:36:00,72.2,69.4,29.87,North,360,3.0,7.0,91,0.00,,---,0.00,VWS V14.01,2013-09-27 05:36:00,
2013-09-27 01:40:00,72.1,69.3,29.87,North,360,4.0,7.0,91,0.00,,---,0.00,VWS V14.01,2013-09-27 05:40:00,
2013-09-27 01:41:00,72.1,69.3,29.87,North,360,2.0,4.0,91,0.00,,---,0.00,VWS V14.01,2013-09-27 05:41:00,
2013-09-27 01:46:00,72.1,69.3,29.87,North,360,0.0,4.0,91,0.00,,---,0.00,VWS V14.01,2013-09-27 05:46:00,
2013-09-27 01:50:00,72.0,69.2,29.87,North,360,0.0,4.0,91,0.00,,---,0.00,VWS V14.01,2013-09-27 05:50:00,
2013-09-27 01:51:00,72.0,69.2,29.87,North,360,0.0,0.0,91,0.00,,---,0.00,VWS V14.01,2013-09-27 05:51:00,
2013-09-27 01:56:00,71.8,69.0,29.87,North,360,0.0,0.0,91,0.00,,---,0.00,VWS V14.01,2013-09-27 05:56:00,
2013-09-27 02:00:00,71.6,68.8,29.86,North,360,0.0,0.0,91,0.00,,---,0.00,VWS V14.01,2013-09-27 06:00:00,
2013-09-27 02:01:00,71.6,68.8,29.87,North,360,0.0,0.0,91,0.00,,---,0.00,VWS V14.01,2013-09-27 06:01:00,
2013-09-27 02:06:00,71.4,69.0,29.86,North,360,0.0,0.0,92,0.00,,---,0.00,VWS V14.01,2013-09-27 06:06:00,
2013-09-27 02:10:00,71.3,68.9,29.86,North,360,0.0,0.0,92,0.00,,---,0.00,VWS V14.01,2013-09-27 06:10:00,
2013-09-27 02:11:00,71.2,68.8,29.86,North,360,1.0,1.0,92,0.00,,---,0.00,VWS V14.01,2013-09-27 06:11:00,
2013-09-27 02:16:00,71.2,69.1,29.86,North,360,0.0,2.0,93,0.00,,---,0.00,VWS V14.01,2013-09-27 06:16:00,
2013-09-27 02:20:00,71.1,69.0,29.86,North,360,3.0,4.0,93,0.00,,---,0.00,VWS V14.01,2013-09-27 06:20:00,
2013-09-27 02:21:00,71.0,68.9,29.86,North,360,2.0,3.0,93,0.00,,---,0.00,VWS V14.01,2013-09-27 06:21:00,
2013-09-27 02:26:00,71.0,68.9,29.86,North,360,0.0,3.0,93,0.00,,---,0.00,VWS V14.01,2013-09-27 06:26:00,
2013-09-27 02:30:00,70.8,68.7,29.87,North,360,1.0,3.0,93,0.00,,---,0.00,VWS V14.01,2013-09-27 06:30:00,
2013-09-27 02:31:00,70.8,68.7,29.86,North,360,1.0,1.0,93,0.00,,---,0.00,VWS V14.01,2013-09-27 06:31:00,
2013-09-27 02:36:00,70.7,68.6,29.86,North,360,1.0,3.0,93,0.00,,---,0.00,VWS V14.01,2013-09-27 06:36:00,
2013-09-27 02:40:00,70.6,68.5,29.86,North,360,5.0,6.0,93,0.00,,---,0.00,VWS V14.01,2013-09-27 06:40:00,
2013-09-27 02:41:00,70.6,68.8,29.86,North,360,3.0,5.0,94,0.00,,---,0.00,VWS V14.01,2013-09-27 06:41:00,
2013-09-27 02:46:00,70.6,68.8,29.86,North,360,2.0,5.0,94,0.00,,---,0.00,VWS V14.01,2013-09-27 06:46:00,
2013-09-27 02:50:00,70.6,68.8,29.86,North,360,2.0,5.0,94,0.00,,---,0.00,VWS V14.01,2013-09-27 06:50:00,
2013-09-27 02:51:00,70.6,68.8,29.86,North,360,3.0,3.0,94,0.00,,---,0.00,VWS V14.01,2013-09-27 06:51:00,
2013-09-27 02:56:00,70.6,68.8,29.87,North,360,4.0,4.0,94,0.00,,---,0.00,VWS V14.01,2013-09-27 06:56:00,
2013-09-27 03:00:00,70.5,68.7,29.86,North,360,4.0,4.0,94,0.00,,---,0.00,VWS V14.01,2013-09-27 07:00:00,
2013-09-27 03:01:00,70.5,68.7,29.86,North,360,5.0,5.0,94,0.00,,---,0.00,VWS V14.01,2013-09-27 07:01:00,
2013-09-27 03:06:00,70.5,68.7,29.87,North,360,2.0,5.0,94,0.00,,---,0.00,VWS V14.01,2013-09-27 07:06:00,
2013-09-27 03:10:00,70.4,68.6,29.87,North,360,1.0,5.0,94,0.00,,---,0.00,VWS V14.01,2013-09-27 07:10:00,
2013-09-27 03:11:00,70.4,68.9,29.87,North,360,2.0,2.0,95,0.00,,---,0.00,VWS V14.01,2013-09-27 07:11:00,
2013-09-27 03:16:00,70.3,68.8,29.86,North,360,2.0,4.0,95,0.00,,---,0.00,VWS V14.01,2013-09-27 07:16:00,
2013-09-27 03:20:00,70.3,68.8,29.86,North,360,2.0,5.0,95,0.00,,---,0.00,VWS V14.01,2013-09-27 07:20:00,
2013-09-27 03:21:00,70.3,68.8,29.86,North,360,0.0,2.0,95,0.00,,---,0.00,VWS V14.01,2013-09-27 07:21:00,
2013-09-27 03:26:00,70.3,68.8,29.86,North,360,4.0,5.0,95,0.00,,---,0.00,VWS V14.01,2013-09-27 07:26:00,
2013-09-27 03:30:00,70.2,68.7,29.86,North,360,1.0,5.0,95,0.00,,---,0.00,VWS V14.01,2013-09-27 07:30:00,
2013-09-27 03:31:00,70.2,68.7,29.86,North,360,2.0,2.0,95,0.00,,---,0.00,VWS V14.01,2013-09-27 07:31:00,
2013-09-27 03:36:00,70.2,68.7,29.86,North,360,1.0,4.0,95,0.00,,---,0.00,VWS V14.01,2013-09-27 07:36:00,
2013-09-27 03:40:00,70.2,68.7,29.86,North,360,1.0,4.0,95,0.00,,---,0.00,VWS V14.01,2013-09-27 07:40:00,
2013-09-27 03:41:00,70.1,68.6,29.86,North,360,4.0,4.0,95,0.00,,---,0.00,VWS V14.01,2013-09-27 07:41:00,
2013-09-27 03:46:00,70.1,68.6,29.86,North,360,2.0,5.0,95,0.00,,---,0.00,VWS V14.01,2013-09-27 07:46:00,
2013-09-27 03:49:00,70.1,68.6,29.86,North,360,4.0,5.0,95,0.00,,---,0.00,VWS V14.01,2013-09-27 07:49:00,
2013-09-27 03:50:00,70.1,68.6,29.86,North,360,4.0,6.0,95,0.00,,---,0.00,VWS V14.01,2013-09-27 07:50:00,
2013-09-27 03:54:00,70.1,68.6,29.85,North,360,4.0,6.0,95,0.00,,---,0.00,VWS V14.01,2013-09-27 07:54:00,
2013-09-27 03:59:00,70.0,68.5,29.85,North,360,4.0,6.0,95,0.00,,---,0.00,VWS V14.01,2013-09-27 07:59:00,
2013-09-27 04:00:00,70.0,68.5,29.85,North,360,5.0,6.0,95,0.00,,---,0.00,VWS V14.01,2013-09-27 08:00:00,
2013-09-27 04:04:00,69.9,68.4,29.86,North,360,3.0,5.0,95,0.00,,---,0.00,VWS V14.01,2013-09-27 08:04:00,
2013-09-27 04:09:00,69.9,68.4,29.86,North,360,4.0,5.0,95,0.00,,---,0.00,VWS V14.01,2013-09-27 08:09:00,
2013-09-27 04:10:00,69.9,68.4,29.85,North,360,4.0,6.0,95,0.00,,---,0.00,VWS V14.01,2013-09-27 08:10:00,
2013-09-27 04:14:00,69.8,68.6,29.85,North,360,4.0,4.0,96,0.00,,---,0.00,VWS V14.01,2013-09-27 08:14:00,
2013-09-27 04:19:00,69.7,68.5,29.85,North,360,1.0,6.0,96,0.00,,---,0.00,VWS V14.01,2013-09-27 08:19:00,
2013-09-27 04:20:00,69.7,68.5,29.85,North,360,0.0,6.0,96,0.00,,---,0.00,VWS V14.01,2013-09-27 08:20:00,
2013-09-27 04:24:00,69.7,68.5,29.85,North,360,1.0,5.0,96,0.00,,---,0.00,VWS V14.01,2013-09-27 08:24:00,
2013-09-27 04:29:00,69.6,68.4,29.85,North,360,5.0,6.0,96,0.00,,---,0.00,VWS V14.01,2013-09-27 08:29:00,
2013-09-27 04:30:00,69.5,68.3,29.85,North,360,1.0,6.0,96,0.00,,---,0.00,VWS V14.01,2013-09-27 08:30:00,
2013-09-27 04:34:00,69.5,68.3,29.85,North,360,2.0,6.0,96,0.00,,---,0.00,VWS V14.01,2013-09-27 08:34:00,
2013-09-27 04:39:00,69.5,68.3,29.85,North,360,5.0,6.0,96,0.00,,---,0.00,VWS V14.01,2013-09-27 08:39:00,
2013-09-27 04:40:00,69.5,68.3,29.85,North,360,4.0,7.0,96,0.00,,---,0.00,VWS V14.01,2013-09-27 08:40:00,
2013-09-27 04:44:00,69.6,68.4,29.85,North,360,3.0,7.0,96,0.00,,---,0.00,VWS V14.01,2013-09-27 08:44:00,
2013-09-27 04:49:00,69.7,68.5,29.85,North,360,3.0,7.0,96,0.00,,---,0.00,VWS V14.01,2013-09-27 08:49:00,
2013-09-27 04:50:00,69.7,68.5,29.85,North,360,4.0,7.0,96,0.00,,---,0.00,VWS V14.01,2013-09-27 08:50:00,
2013-09-27 04:54:00,69.8,68.6,29.85,North,360,5.0,6.0,96,0.00,,---,0.00,VWS V14.01,2013-09-27 08:54:00,
2013-09-27 04:59:00,69.9,68.7,29.85,North,360,3.0,7.0,96,0.00,,---,0.00,VWS V14.01,2013-09-27 08:59:00,
2013-09-27 05:00:00,69.9,68.7,29.85,North,360,3.0,7.0,96,0.00,,---,0.00,VWS V14.01,2013-09-27 09:00:00,
2013-09-27 05:04:00,69.9,68.7,29.85,North,360,4.0,7.0,96,0.00,,---,0.00,VWS V14.01,2013-09-27 09:04:00,
2013-09-27 05:09:00,70.0,68.8,29.85,North,360,6.0,8.0,96,0.00,,---,0.00,VWS V14.01,2013-09-27 09:09:00,
2013-09-27 05:10:00,70.0,68.8,29.85,North,360,3.0,8.0,96,0.00,,---,0.00,VWS V14.01,2013-09-27 09:10:00,
2013-09-27 05:14:00,70.1,68.9,29.86,North,360,4.0,8.0,96,0.00,,---,0.00,VWS V14.01,2013-09-27 09:14:00,
2013-09-27 05:19:00,70.2,69.0,29.85,North,360,7.0,8.0,96,0.00,,---,0.00,VWS V14.01,2013-09-27 09:19:00,
2013-09-27 05:20:00,70.2,69.0,29.86,North,360,6.0,9.0,96,0.00,,---,0.00,VWS V14.01,2013-09-27 09:20:00,
2013-09-27 05:24:00,70.3,69.1,29.86,North,360,4.0,7.0,96,0.00,,---,0.00,VWS V14.01,2013-09-27 09:24:00,
2013-09-27 05:29:00,70.3,69.1,29.86,North,360,1.0,9.0,96,0.00,,---,0.00,VWS V14.01,2013-09-27 09:29:00,
2013-09-27 05:30:00,70.3,69.1,29.86,North,360,5.0,9.0,96,0.00,,---,0.00,VWS V14.01,2013-09-27 09:30:00,
2013-09-27 05:34:00,70.4,69.2,29.86,North,360,4.0,7.0,96,0.00,,---,0.00,VWS V14.01,2013-09-27 09:34:00,
2013-09-27 05:39:00,70.5,69.3,29.87,North,360,8.0,9.0,96,0.00,,---,0.00,VWS V14.01,2013-09-27 09:39:00,
2013-09-27 05:40:00,70.5,69.3,29.87,North,360,4.0,9.0,96,0.00,,---,0.00,VWS V14.01,2013-09-27 09:40:00,
2013-09-27 05:44:00,70.5,69.3,29.86,North,360,8.0,8.0,96,0.00,,---,0.00,VWS V14.01,2013-09-27 09:44:00,
2013-09-27 05:49:00,70.5,69.3,29.87,North,360,5.0,8.0,96,0.00,,---,0.00,VWS V14.01,2013-09-27 09:49:00,
2013-09-27 05:50:00,70.5,69.3,29.87,North,360,5.0,9.0,96,0.00,,---,0.00,VWS V14.01,2013-09-27 09:50:00,
2013-09-27 05:54:00,70.6,69.4,29.87,North,360,6.0,8.0,96,0.00,,---,0.00,VWS V14.01,2013-09-27 09:54:00,
2013-09-27 05:59:00,70.6,69.4,29.87,North,360,1.0,8.0,96,0.00,,---,0.00,VWS V14.01,2013-09-27 09:59:00,
2013-09-27 06:00:00,70.6,69.4,29.87,North,360,5.0,8.0,96,0.00,,---,0.00,VWS V14.01,2013-09-27 10:00:00,
2013-09-27 06:04:00,70.6,69.4,29.87,North,360,5.0,8.0,96,0.00,,---,0.00,VWS V14.01,2013-09-27 10:04:00,
2013-09-27 06:09:00,70.6,69.4,29.87,North,360,5.0,8.0,96,0.00,,---,0.00,VWS V14.01,2013-09-27 10:09:00,
2013-09-27 06:10:00,70.6,69.4,29.87,North,360,5.0,9.0,96,0.00,,---,0.00,VWS V14.01,2013-09-27 10:10:00,
2013-09-27 06:14:00,70.6,69.4,29.87,North,360,3.0,7.0,96,0.00,,---,0.00,VWS V14.01,2013-09-27 10:14:00,
2013-09-27 06:19:00,70.7,69.5,29.88,North,360,5.0,7.0,96,0.00,,---,0.00,VWS V14.01,2013-09-27 10:19:00,
2013-09-27 06:20:00,70.7,69.5,29.87,North,360,3.0,7.0,96,0.00,,---,0.00,VWS V14.01,2013-09-27 10:20:00,
2013-09-27 06:24:00,70.7,69.5,29.88,North,360,4.0,9.0,96,0.00,,---,0.00,VWS V14.01,2013-09-27 10:24:00,
2013-09-27 06:29:00,70.7,69.5,29.88,North,360,4.0,9.0,96,0.00,,---,0.00,VWS V14.01,2013-09-27 10:29:00,
2013-09-27 06:30:00,70.7,69.5,29.88,North,360,3.0,9.0,96,0.00,,---,0.00,VWS V14.01,2013-09-27 10:30:00,
2013-09-27 06:34:00,70.7,69.5,29.88,North,360,4.0,6.0,96,0.00,,---,0.00,VWS V14.01,2013-09-27 10:34:00,
2013-09-27 06:39:00,70.7,69.5,29.88,North,360,7.0,10.0,96,0.00,,---,0.00,VWS V14.01,2013-09-27 10:39:00,
2013-09-27 06:40:00,70.7,69.5,29.88,North,360,4.0,10.0,96,0.00,,---,0.00,VWS V14.01,2013-09-27 10:40:00,
2013-09-27 06:44:00,70.7,69.5,29.88,North,360,4.0,6.0,96,0.00,,---,0.00,VWS V14.01,2013-09-27 10:44:00,
2013-09-27 06:49:00,70.7,69.5,29.88,North,360,4.0,9.0,96,0.00,,---,0.00,VWS V14.01,2013-09-27 10:49:00,
2013-09-27 06:50:00,70.6,69.4,29.89,North,360,4.0,9.0,96,0.00,,---,0.00,VWS V14.01,2013-09-27 10:50:00,
2013-09-27 06:54:00,70.6,69.4,29.89,North,360,5.0,6.0,96,0.00,,---,0.00,VWS V14.01,2013-09-27 10:54:00,
2013-09-27 06:59:00,70.7,69.5,29.89,North,360,3.0,8.0,96,0.00,,---,0.00,VWS V14.01,2013-09-27 10:59:00,
2013-09-27 07:00:00,70.7,69.5,29.89,North,360,4.0,8.0,96,0.00,,---,0.00,VWS V14.01,2013-09-27 11:00:00,
2013-09-27 07:04:00,70.7,69.5,29.89,North,360,10.0,10.0,96,0.00,,---,0.00,VWS V14.01,2013-09-27 11:04:00,
2013-09-27 07:09:00,70.7,69.5,29.89,North,360,4.0,10.0,96,0.00,,---,0.00,VWS V14.01,2013-09-27 11:09:00,
2013-09-27 07:10:00,70.7,69.5,29.89,North,360,5.0,10.0,96,0.00,,---,0.00,VWS V14.01,2013-09-27 11:10:00,
2013-09-27 07:14:00,70.7,69.5,29.89,North,360,5.0,8.0,96,0.00,,---,0.00,VWS V14.01,2013-09-27 11:14:00,
2013-09-27 07:19:00,70.7,69.5,29.90,North,360,6.0,8.0,96,0.00,,---,0.00,VWS V14.01,2013-09-27 11:19:00,
2013-09-27 07:20:00,70.6,69.4,29.90,North,360,4.0,8.0,96,0.00,,---,0.00,VWS V14.01,2013-09-27 11:20:00,
2013-09-27 07:24:00,70.6,69.4,29.90,North,360,4.0,8.0,96,0.00,,---,0.00,VWS V14.01,2013-09-27 11:24:00,
2013-09-27 07:29:00,70.6,69.4,29.90,North,360,7.0,8.0,96,0.00,,---,0.00,VWS V14.01,2013-09-27 11:29:00,
2013-09-27 07:30:00,70.6,69.4,29.90,North,360,4.0,8.0,96,0.00,,---,0.00,VWS V14.01,2013-09-27 11:30:00,
2013-09-27 07:34:00,70.6,69.4,29.89,North,360,8.0,8.0,96,0.00,,---,0.00,VWS V14.01,2013-09-27 11:34:00,
2013-09-27 07:39:00,70.6,69.4,29.90,North,360,5.0,8.0,96,0.00,,---,0.00,VWS V14.01,2013-09-27 11:39:00,
2013-09-27 07:40:00,70.6,69.4,29.90,North,360,7.0,8.0,96,0.00,,---,0.00,VWS V14.01,2013-09-27 11:40:00,
2013-09-27 07:44:00,70.6,69.4,29.90,North,360,5.0,8.0,96,0.00,,---,0.00,VWS V14.01,2013-09-27 11:44:00,
2013-09-27 07:49:00,70.6,69.4,29.90,North,360,4.0,8.0,96,0.00,,---,0.00,VWS V14.01,2013-09-27 11:49:00,
2013-09-27 07:50:00,70.7,69.5,29.90,North,360,6.0,8.0,96,0.00,,---,0.00,VWS V14.01,2013-09-27 11:50:00,
2013-09-27 07:54:00,70.7,69.5,29.90,North,360,6.0,11.0,96,0.00,,---,0.00,VWS V14.01,2013-09-27 11:54:00,
2013-09-27 07:59:00,70.7,69.5,29.90,North,360,4.0,11.0,96,0.00,,---,0.00,VWS V14.01,2013-09-27 11:59:00,
2013-09-27 08:00:00,70.7,69.5,29.90,North,360,9.0,11.0,96,0.00,,---,0.00,VWS V14.01,2013-09-27 12:00:00,
2013-09-27 08:04:00,70.7,69.5,29.91,North,360,7.0,9.0,96,0.00,,---,0.00,VWS V14.01,2013-09-27 12:04:00,
2013-09-27 08:09:00,70.8,69.6,29.91,North,360,7.0,9.0,96,0.00,,---,0.00,VWS V14.01,2013-09-27 12:09:00,
2013-09-27 08:10:00,70.8,69.6,29.91,North,360,3.0,9.0,96,0.00,,---,0.00,VWS V14.01,2013-09-27 12:10:00,
2013-09-27 08:14:00,70.9,69.7,29.91,North,360,4.0,6.0,96,0.00,,---,0.00,VWS V14.01,2013-09-27 12:14:00,
2013-09-27 08:19:00,70.9,69.7,29.91,North,360,2.0,11.0,96,0.00,,---,0.00,VWS V14.01,2013-09-27 12:19:00,
2013-09-27 08:20:00,70.9,69.7,29.91,North,360,5.0,11.0,96,0.00,,---,0.00,VWS V14.01,2013-09-27 12:20:00,
2013-09-27 08:24:00,70.9,69.7,29.91,North,360,6.0,12.0,96,0.00,,---,0.00,VWS V14.01,2013-09-27 12:24:00,
2013-09-27 08:29:00,71.0,69.8,29.92,North,360,7.0,12.0,96,0.00,,---,0.00,VWS V14.01,2013-09-27 12:29:00,
2013-09-27 08:30:00,71.0,69.8,29.92,North,360,4.0,12.0,96,0.00,,---,0.00,VWS V14.01,2013-09-27 12:30:00,
2013-09-27 08:34:00,71.0,69.8,29.91,North,360,4.0,8.0,96,0.00,,---,0.00,VWS V14.01,2013-09-27 12:34:00,
2013-09-27 08:39:00,71.2,70.0,29.92,North,360,2.0,8.0,96,0.00,,---,0.00,VWS V14.01,2013-09-27 12:39:00,
2013-09-27 08:40:00,71.2,70.0,29.92,North,360,3.0,8.0,96,0.00,,---,0.00,VWS V14.01,2013-09-27 12:40:00,
2013-09-27 08:44:00,71.3,70.1,29.92,North,360,6.0,8.0,96,0.00,,---,0.00,VWS V14.01,2013-09-27 12:44:00,
2013-09-27 08:49:00,71.2,70.0,29.92,North,360,7.0,8.0,96,0.00,,---,0.00,VWS V14.01,2013-09-27 12:49:00,
2013-09-27 08:50:00,71.2,70.0,29.92,North,360,6.0,8.0,96,0.00,,---,0.00,VWS V14.01,2013-09-27 12:50:00,
2013-09-27 08:54:00,71.3,70.1,29.92,North,360,5.0,9.0,96,0.00,,---,0.00,VWS V14.01,2013-09-27 12:54:00,
2013-09-27 08:59:00,71.4,70.2,29.92,North,360,6.0,9.0,96,0.00,,---,0.00,VWS V14.01,2013-09-27 12:59:00,
2013-09-27 09:00:00,71.4,70.2,29.92,North,360,4.0,9.0,96,0.00,,---,0.00,VWS V14.01,2013-09-27 13:00:00,
2013-09-27 09:04:00,71.5,70.0,29.92,North,360,9.0,10.0,95,0.00,,---,0.00,VWS V14.01,2013-09-27 13:04:00,
2013-09-27 09:09:00,71.6,70.4,29.92,North,360,6.0,10.0,96,0.00,,---,0.00,VWS V14.01,2013-09-27 13:09:00,
2013-09-27 09:10:00,71.7,70.2,29.92,North,360,4.0,10.0,95,0.00,,---,0.00,VWS V14.01,2013-09-27 13:10:00,
2013-09-27 09:14:00,71.7,70.2,29.92,North,360,5.0,9.0,95,0.00,,---,0.00,VWS V14.01,2013-09-27 13:14:00,
2013-09-27 09:19:00,71.9,70.4,29.92,North,360,4.0,9.0,95,0.00,,---,0.00,VWS V14.01,2013-09-27 13:19:00,
2013-09-27 09:20:00,72.0,70.5,29.92,North,360,6.0,9.0,95,0.00,,---,0.00,VWS V14.01,2013-09-27 13:20:00,
2013-09-27 09:24:00,72.1,70.6,29.92,North,360,5.0,10.0,95,0.00,,---,0.00,VWS V14.01,2013-09-27 13:24:00,
2013-09-27 09:29:00,72.4,70.9,29.92,North,360,5.0,10.0,95,0.00,,---,0.00,VWS V14.01,2013-09-27 13:29:00,
2013-09-27 09:30:00,72.4,70.9,29.92,North,360,3.0,10.0,95,0.00,,---,0.00,VWS V14.01,2013-09-27 13:30:00,
2013-09-27 09:34:00,72.5,70.7,29.93,North,360,7.0,11.0,94,0.00,,---,0.00,VWS V14.01,2013-09-27 13:34:00,
2013-09-27 09:39:00,72.6,70.8,29.92,North,360,2.0,11.0,94,0.00,,---,0.00,VWS V14.01,2013-09-27 13:39:00,
2013-09-27 09:40:00,72.6,70.8,29.92,North,360,6.0,11.0,94,0.00,,---,0.00,VWS V14.01,2013-09-27 13:40:00,
2013-09-27 09:44:00,72.7,70.9,29.93,North,360,7.0,9.0,94,0.00,,---,0.00,VWS V14.01,2013-09-27 13:44:00,
2013-09-27 09:49:00,72.7,70.6,29.93,North,360,4.0,10.0,93,0.00,,---,0.00,VWS V14.01,2013-09-27 13:49:00,
2013-09-27 09:50:00,72.8,70.7,29.93,North,360,9.0,10.0,93,0.00,,---,0.00,VWS V14.01,2013-09-27 13:50:00,
2013-09-27 09:54:00,72.8,70.7,29.93,North,360,5.0,11.0,93,0.00,,---,0.00,VWS V14.01,2013-09-27 13:54:00,
2013-09-27 09:59:00,72.9,70.8,29.93,North,360,3.0,11.0,93,0.00,,---,0.00,VWS V14.01,2013-09-27 13:59:00,
2013-09-27 10:00:00,72.9,70.8,29.93,North,360,3.0,11.0,93,0.00,,---,0.00,VWS V14.01,2013-09-27 14:00:00,
2013-09-27 10:04:00,73.0,70.9,29.93,North,360,4.0,6.0,93,0.00,,---,0.00,VWS V14.01,2013-09-27 14:04:00,
2013-09-27 10:09:00,73.2,71.1,29.93,North,360,4.0,8.0,93,0.00,,---,0.00,VWS V14.01,2013-09-27 14:09:00,
2013-09-27 10:10:00,73.2,70.7,29.93,North,360,4.0,8.0,92,0.00,,---,0.00,VWS V14.01,2013-09-27 14:10:00,
2013-09-27 10:14:00,73.3,70.8,29.93,North,360,3.0,5.0,92,0.00,,---,0.00,VWS V14.01,2013-09-27 14:14:00,
2013-09-27 10:19:00,73.3,70.5,29.93,North,360,9.0,9.0,91,0.00,,---,0.00,VWS V14.01,2013-09-27 14:19:00,
2013-09-27 10:20:00,73.4,70.6,29.93,North,360,7.0,10.0,91,0.00,,---,0.00,VWS V14.01,2013-09-27 14:20:00,
2013-09-27 10:24:00,73.5,71.0,29.93,North,360,3.0,8.0,92,0.00,,---,0.00,VWS V14.01,2013-09-27 14:24:00,
2013-09-27 10:29:00,73.7,70.9,29.93,North,360,5.0,10.0,91,0.00,,---,0.00,VWS V14.01,2013-09-27 14:29:00,
2013-09-27 10:30:00,73.8,71.0,29.93,North,360,4.0,10.0,91,0.00,,---,0.00,VWS V14.01,2013-09-27 14:30:00,
2013-09-27 10:34:00,73.9,71.1,29.93,North,360,4.0,7.0,91,0.00,,---,0.00,VWS V14.01,2013-09-27 14:34:00,
2013-09-27 10:39:00,74.1,71.3,29.93,North,360,1.0,9.0,91,0.00,,---,0.00,VWS V14.01,2013-09-27 14:39:00,
2013-09-27 10:40:00,74.1,71.3,29.93,North,360,7.0,9.0,91,0.00,,---,0.00,VWS V14.01,2013-09-27 14:40:00,
2013-09-27 10:44:00,74.3,71.5,29.93,North,360,5.0,8.0,91,0.00,,---,0.00,VWS V14.01,2013-09-27 14:44:00,
2013-09-27 10:49:00,74.5,71.4,29.93,North,360,4.0,10.0,90,0.00,,---,0.00,VWS V14.01,2013-09-27 14:49:00,
2013-09-27 10:50:00,74.5,71.4,29.93,North,360,10.0,10.0,90,0.00,,---,0.00,VWS V14.01,2013-09-27 14:50:00,
2013-09-27 10:54:00,74.6,71.2,29.93,North,360,5.0,10.0,89,0.00,,---,0.00,VWS V14.01,2013-09-27 14:54:00,
2013-09-27 10:59:00,74.7,71.2,29.93,North,360,8.0,10.0,89,0.00,,---,0.00,VWS V14.01,2013-09-27 14:59:00,
2013-09-27 11:00:00,74.7,71.2,29.93,North,360,5.0,10.0,89,0.00,,---,0.00,VWS V14.01,2013-09-27 15:00:00,
2013-09-27 11:04:00,74.8,71.7,29.93,North,360,12.0,12.0,90,0.00,,---,0.00,VWS V14.01,2013-09-27 15:04:00,
2013-09-27 11:09:00,74.7,71.2,29.93,North,360,2.0,12.0,89,0.00,,---,0.00,VWS V14.01,2013-09-27 15:09:00,
2013-09-27 11:10:00,74.7,71.2,29.93,North,360,7.0,12.0,89,0.00,,---,0.00,VWS V14.01,2013-09-27 15:10:00,
2013-09-27 11:14:00,74.8,71.3,29.93,North,360,5.0,10.0,89,0.00,,---,0.00,VWS V14.01,2013-09-27 15:14:00,
2013-09-27 11:19:00,74.9,71.4,29.93,North,360,4.0,10.0,89,0.00,,---,0.00,VWS V14.01,2013-09-27 15:19:00,
2013-09-27 11:20:00,75.1,71.6,29.93,North,360,6.0,10.0,89,0.00,,---,0.00,VWS V14.01,2013-09-27 15:20:00,
2013-09-27 11:24:00,75.3,71.5,29.93,North,360,6.0,9.0,88,0.00,,---,0.00,VWS V14.01,2013-09-27 15:24:00,
2013-09-27 11:29:00,75.8,71.7,29.93,North,360,5.0,10.0,87,0.00,,---,0.00,VWS V14.01,2013-09-27 15:29:00,
2013-09-27 11:30:00,76.0,72.2,29.93,North,360,6.0,10.0,88,0.00,,---,0.00,VWS V14.01,2013-09-27 15:30:00,
2013-09-27 11:34:00,76.6,72.4,29.93,North,360,4.0,9.0,87,0.00,,---,0.00,VWS V14.01,2013-09-27 15:34:00,
2013-09-27 11:39:00,77.6,72.7,29.93,North,360,4.0,9.0,85,0.00,,---,0.00,VWS V14.01,2013-09-27 15:39:00,
2013-09-27 11:40:00,78.0,73.8,29.93,North,360,4.0,9.0,87,0.00,,---,0.00,VWS V14.01,2013-09-27 15:40:00,
2013-09-27 11:44:00,79.1,74.2,29.92,North,360,7.0,8.0,85,0.00,,---,0.00,VWS V14.01,2013-09-27 15:44:00,
2013-09-27 11:49:00,79.2,72.9,29.92,North,360,7.0,12.0,81,0.00,,---,0.00,VWS V14.01,2013-09-27 15:49:00,
2013-09-27 11:50:00,78.9,72.6,29.92,North,360,5.0,12.0,81,0.00,,---,0.00,VWS V14.01,2013-09-27 15:50:00,
2013-09-27 11:54:00,79.1,73.8,29.92,North,360,3.0,7.0,84,0.00,,---,0.00,VWS V14.01,2013-09-27 15:54:00,
2013-09-27 11:59:00,79.8,73.8,29.92,North,360,7.0,10.0,82,0.00,,---,0.00,VWS V14.01,2013-09-27 15:59:00,
2013-09-27 12:00:00,80.0,73.7,29.92,North,360,8.0,11.0,81,0.00,,---,0.00,VWS V14.01,2013-09-27 16:00:00,
2013-09-27 12:04:00,80.3,73.9,29.92,North,360,5.0,12.0,81,0.00,,---,0.00,VWS V14.01,2013-09-27 16:04:00,
2013-09-27 12:09:00,81.1,74.7,29.92,North,360,4.0,12.0,81,0.00,,---,0.00,VWS V14.01,2013-09-27 16:09:00,
2013-09-27 12:10:00,81.5,75.1,29.92,North,360,6.0,12.0,81,0.00,,---,0.00,VWS V14.01,2013-09-27 16:10:00,
2013-09-27 12:14:00,82.3,75.1,29.92,North,360,7.0,14.0,79,0.00,,---,0.00,VWS V14.01,2013-09-27 16:14:00,
2013-09-27 12:19:00,83.3,76.5,29.92,North,360,3.0,14.0,80,0.00,,---,0.00,VWS V14.01,2013-09-27 16:19:00,
2013-09-27 12:20:00,83.4,74.7,29.92,North,360,4.0,14.0,75,0.00,,---,0.00,VWS V14.01,2013-09-27 16:20:00,
2013-09-27 12:24:00,82.7,74.4,29.91,North,360,2.0,10.0,76,0.00,,---,0.00,VWS V14.01,2013-09-27 16:24:00,
2013-09-27 12:29:00,83.0,74.3,29.91,North,360,9.0,12.0,75,0.00,,---,0.00,VWS V14.01,2013-09-27 16:29:00,
2013-09-27 12:30:00,83.0,75.1,29.91,North,360,9.0,13.0,77,0.00,,---,0.00,VWS V14.01,2013-09-27 16:30:00,
2013-09-27 12:34:00,83.0,74.3,29.91,North,360,12.0,16.0,75,0.00,,---,0.00,VWS V14.01,2013-09-27 16:34:00,
2013-09-27 12:39:00,83.7,74.5,29.91,North,360,8.0,16.0,74,0.00,,---,0.00,VWS V14.01,2013-09-27 16:39:00,
2013-09-27 12:40:00,83.6,74.8,29.91,North,360,13.0,16.0,75,0.00,,---,0.00,VWS V14.01,2013-09-27 16:40:00,
2013-09-27 12:44:00,83.0,74.3,29.91,North,360,7.0,15.0,75,0.00,,---,0.00,VWS V14.01,2013-09-27 16:44:00,
2013-09-27 12:49:00,83.7,75.3,29.91,North,360,11.0,15.0,76,0.00,,---,0.00,VWS V14.01,2013-09-27 16:49:00,
2013-09-27 12:50:00,83.6,74.8,29.91,North,360,13.0,15.0,75,0.00,,---,0.00,VWS V14.01,2013-09-27 16:50:00,
2013-09-27 12:54:00,83.5,75.1,29.91,North,360,5.0,15.0,76,0.00,,---,0.00,VWS V14.01,2013-09-27 16:54:00,
2013-09-27 12:59:00,82.9,73.8,29.91,North,360,12.0,15.0,74,0.00,,---,0.00,VWS V14.01,2013-09-27 16:59:00,
2013-09-27 13:00:00,82.5,73.0,29.91,North,360,3.0,15.0,73,0.00,,---,0.00,VWS V14.01,2013-09-27 17:00:00,
2013-09-27 13:04:00,82.0,74.1,29.90,North,360,4.0,12.0,77,0.00,,---,0.00,VWS V14.01,2013-09-27 17:04:00,
2013-09-27 13:09:00,82.5,74.2,29.90,North,360,11.0,13.0,76,0.00,,---,0.00,VWS V14.01,2013-09-27 17:09:00,
2013-09-27 13:10:00,82.5,73.8,29.90,North,360,7.0,13.0,75,0.00,,---,0.00,VWS V14.01,2013-09-27 17:10:00,
2013-09-27 13:14:00,82.1,73.0,29.90,North,360,4.0,15.0,74,0.00,,---,0.00,VWS V14.01,2013-09-27 17:14:00,
2013-09-27 13:19:00,81.4,72.7,29.90,North,360,10.0,16.0,75,0.00,,---,0.00,VWS V14.01,2013-09-27 17:19:00,
2013-09-27 13:20:00,81.2,72.9,29.91,North,360,11.0,16.0,76,0.00,,---,0.00,VWS V14.01,2013-09-27 17:20:00,
2013-09-27 13:24:00,80.9,72.6,29.90,North,360,12.0,14.0,76,0.00,,---,0.00,VWS V14.01,2013-09-27 17:24:00,
2013-09-27 13:26:00,80.7,72.4,29.90,North,360,7.0,15.0,76,0.00,,---,0.00,VWS V14.01,2013-09-27 17:26:00,
2013-09-27 13:30:00,80.5,72.6,29.90,North,360,6.0,15.0,77,0.00,,---,0.00,VWS V14.01,2013-09-27 17:30:00,
2013-09-27 13:31:00,80.5,72.6,29.90,North,360,7.0,9.0,77,0.00,,---,0.00,VWS V14.01,2013-09-27 17:31:00,
2013-09-27 13:36:00,81.0,72.7,29.90,North,360,6.0,15.0,76,0.00,,---,0.00,VWS V14.01,2013-09-27 17:36:00,
2013-09-27 13:40:00,81.2,72.5,29.90,North,360,12.0,17.0,75,0.00,,---,0.00,VWS V14.01,2013-09-27 17:40:00,
2013-09-27 13:41:00,81.2,72.5,29.90,North,360,11.0,14.0,75,0.00,,---,0.00,VWS V14.01,2013-09-27 17:41:00,
2013-09-27 13:46:00,81.2,73.3,29.90,North,360,6.0,14.0,77,0.00,,---,0.00,VWS V14.01,2013-09-27 17:46:00,
2013-09-27 13:50:00,81.6,73.3,29.90,North,360,10.0,14.0,76,0.00,,---,0.00,VWS V14.01,2013-09-27 17:50:00,
2013-09-27 13:51:00,81.7,73.8,29.90,North,360,6.0,10.0,77,0.00,,---,0.00,VWS V14.01,2013-09-27 17:51:00,
2013-09-27 13:56:00,81.8,72.7,29.90,North,360,8.0,15.0,74,0.00,,---,0.00,VWS V14.01,2013-09-27 17:56:00,
2013-09-27 14:00:00,81.3,72.2,29.90,North,360,10.0,15.0,74,0.00,,---,0.00,VWS V14.01,2013-09-27 18:00:00,
2013-09-27 14:01:00,81.3,72.6,29.89,North,360,8.0,10.0,75,0.00,,---,0.00,VWS V14.01,2013-09-27 18:01:00,
2013-09-27 14:06:00,81.2,72.9,29.89,North,360,6.0,12.0,76,0.00,,---,0.00,VWS V14.01,2013-09-27 18:06:00,
2013-09-27 14:10:00,81.5,72.4,29.89,North,360,6.0,13.0,74,0.00,,---,0.00,VWS V14.01,2013-09-27 18:10:00,
2013-09-27 14:11:00,81.5,72.4,29.89,North,360,7.0,8.0,74,0.00,,---,0.00,VWS V14.01,2013-09-27 18:11:00,
2013-09-27 14:16:00,81.4,73.1,29.89,North,360,6.0,15.0,76,0.00,,---,0.00,VWS V14.01,2013-09-27 18:16:00,
2013-09-27 14:20:00,81.6,73.7,29.88,North,360,8.0,15.0,77,0.00,,---,0.00,VWS V14.01,2013-09-27 18:20:00,
2013-09-27 14:21:00,81.7,73.8,29.88,North,360,10.0,10.0,77,0.00,,---,0.00,VWS V14.01,2013-09-27 18:21:00,
2013-09-27 14:26:00,81.5,72.0,29.88,North,360,9.0,18.0,73,0.00,,---,0.00,VWS V14.01,2013-09-27 18:26:00,
2013-09-27 14:30:00,81.0,72.3,29.88,North,360,13.0,18.0,75,0.00,,---,0.00,VWS V14.01,2013-09-27 18:30:00,
2013-09-27 14:31:00,80.9,72.2,29.88,North,360,10.0,14.0,75,0.00,,---,0.00,VWS V14.01,2013-09-27 18:31:00,
2013-09-27 14:36:00,80.7,72.4,29.88,North,360,12.0,14.0,76,0.00,,---,0.00,VWS V14.01,2013-09-27 18:36:00,
2013-09-27 14:40:00,81.7,72.6,29.88,North,360,8.0,14.0,74,0.00,,---,0.00,VWS V14.01,2013-09-27 18:40:00,
2013-09-27 14:41:00,81.7,72.2,29.88,North,360,12.0,17.0,73,0.00,,---,0.00,VWS V14.01,2013-09-27 18:41:00,
2013-09-27 14:46:00,81.9,72.8,29.88,North,360,8.0,17.0,74,0.00,,---,0.00,VWS V14.01,2013-09-27 18:46:00,
2013-09-27 14:50:00,81.4,71.5,29.88,North,360,10.0,17.0,72,0.00,,---,0.00,VWS V14.01,2013-09-27 18:50:00,
2013-09-27 14:51:00,81.4,71.5,29.88,North,360,5.0,10.0,72,0.00,,---,0.00,VWS V14.01,2013-09-27 18:51:00,
2013-09-27 14:56:00,81.5,72.4,29.87,North,360,4.0,11.0,74,0.00,,---,0.00,VWS V14.01,2013-09-27 18:56:00,
2013-09-27 15:00:00,81.4,72.3,29.87,North,360,8.0,11.0,74,0.00,,---,0.00,VWS V14.01,2013-09-27 19:00:00,
2013-09-27 15:01:00,81.4,72.3,29.87,North,360,6.0,9.0,74,0.00,,---,0.00,VWS V14.01,2013-09-27 19:01:00,
2013-09-27 15:06:00,81.1,72.4,29.87,North,360,7.0,12.0,75,0.00,,---,0.00,VWS V14.01,2013-09-27 19:06:00,
2013-09-27 15:10:00,80.9,72.2,29.87,North,360,4.0,12.0,75,0.00,,---,0.00,VWS V14.01,2013-09-27 19:10:00,
2013-09-27 15:11:00,80.9,71.8,29.87,North,360,2.0,4.0,74,0.00,,---,0.00,VWS V14.01,2013-09-27 19:11:00,
2013-09-27 15:16:00,80.5,71.5,29.87,North,360,6.0,12.0,74,0.00,,---,0.00,VWS V14.01,2013-09-27 19:16:00,
2013-09-27 15:20:00,80.2,71.6,29.87,North,360,2.0,12.0,75,0.00,,---,0.00,VWS V14.01,2013-09-27 19:20:00,
2013-09-27 15:21:00,80.2,71.6,29.87,North,360,5.0,5.0,75,0.00,,---,0.00,VWS V14.01,2013-09-27 19:21:00,
2013-09-27 15:26:00,80.0,71.8,29.87,North,360,6.0,9.0,76,0.00,,---,0.00,VWS V14.01,2013-09-27 19:26:00,
2013-09-27 15:30:00,80.2,71.9,29.87,North,360,7.0,9.0,76,0.00,,---,0.00,VWS V14.01,2013-09-27 19:30:00,
2013-09-27 15:31:00,80.2,71.9,29.87,North,360,4.0,7.0,76,0.00,,---,0.00,VWS V14.01,2013-09-27 19:31:00,
2013-09-27 15:36:00,80.7,72.4,29.86,North,360,6.0,10.0,76,0.00,,---,0.00,VWS V14.01,2013-09-27 19:36:00,
2013-09-27 15:40:00,81.3,72.6,29.86,North,360,4.0,10.0,75,0.00,,---,0.00,VWS V14.01,2013-09-27 19:40:00,
2013-09-27 15:41:00,81.3,72.6,29.86,North,360,7.0,8.0,75,0.00,,---,0.00,VWS V14.01,2013-09-27 19:41:00,
2013-09-27 15:46:00,81.3,71.8,29.86,North,360,2.0,8.0,73,0.00,,---,0.00,VWS V14.01,2013-09-27 19:46:00,
2013-09-27 15:50:00,81.1,71.6,29.86,North,360,8.0,10.0,73,0.00,,---,0.00,VWS V14.01,2013-09-27 19:50:00,
2013-09-27 15:51:00,81.1,71.6,29.86,North,360,6.0,11.0,73,0.00,,---,0.00,VWS V14.01,2013-09-27 19:51:00,
2013-09-27 15:56:00,81.0,71.9,29.87,North,360,4.0,11.0,74,0.00,,---,0.00,VWS V14.01,2013-09-27 19:56:00,
2013-09-27 16:00:00,81.2,71.7,29.87,North,360,11.0,17.0,73,0.00,,---,0.00,VWS V14.01,2013-09-27 20:00:00,
2013-09-27 16:01:00,81.2,71.7,29.87,North,360,13.0,14.0,73,0.00,,---,0.00,VWS V14.01,2013-09-27 20:01:00,
2013-09-27 16:06:00,81.1,72.4,29.87,North,360,6.0,15.0,75,0.00,,---,0.00,VWS V14.01,2013-09-27 20:06:00,
2013-09-27 16:10:00,80.8,71.8,29.87,North,360,10.0,15.0,74,0.00,,---,0.00,VWS V14.01,2013-09-27 20:10:00,
2013-09-27 16:11:00,80.8,71.7,29.87,North,360,12.0,12.0,74,0.00,,---,0.00,VWS V14.01,2013-09-27 20:11:00,
2013-09-27 16:16:00,80.4,71.0,29.87,North,360,5.0,14.0,73,0.00,,---,0.00,VWS V14.01,2013-09-27 20:16:00,
2013-09-27 16:20:00,80.3,71.7,29.87,North,360,4.0,14.0,75,0.00,,---,0.00,VWS V14.01,2013-09-27 20:20:00,
2013-09-27 16:21:00,80.3,72.1,29.87,North,360,7.0,10.0,76,0.00,,---,0.00,VWS V14.01,2013-09-27 20:21:00,
2013-09-27 16:26:00,80.5,71.5,29.87,North,360,10.0,13.0,74,0.00,,---,0.00,VWS V14.01,2013-09-27 20:26:00,
2013-09-27 16:30:00,80.7,70.8,29.87,North,360,8.0,15.0,72,0.00,,---,0.00,VWS V14.01,2013-09-27 20:30:00,
2013-09-27 16:31:00,80.7,70.8,29.87,North,360,9.0,9.0,72,0.00,,---,0.00,VWS V14.01,2013-09-27 20:31:00,
2013-09-27 16:36:00,80.8,70.9,29.87,North,360,5.0,15.0,72,0.00,,---,0.00,VWS V14.01,2013-09-27 20:36:00,
2013-09-27 16:40:00,80.9,71.0,29.87,North,360,7.0,15.0,72,0.00,,---,0.00,VWS V14.01,2013-09-27 20:40:00,
2013-09-27 16:41:00,81.0,71.1,29.87,North,360,4.0,7.0,72,0.00,,---,0.00,VWS V14.01,2013-09-27 20:41:00,
2013-09-27 16:46:00,81.1,71.2,29.87,North,360,13.0,17.0,72,0.00,,---,0.00,VWS V14.01,2013-09-27 20:46:00,
2013-09-27 16:50:00,81.2,71.3,29.87,North,360,4.0,17.0,72,0.00,,---,0.00,VWS V14.01,2013-09-27 20:50:00,
2013-09-27 16:51:00,81.2,71.3,29.87,North,360,7.0,8.0,72,0.00,,---,0.00,VWS V14.01,2013-09-27 20:51:00,
2013-09-27 16:56:00,81.3,71.4,29.87,North,360,8.0,16.0,72,0.00,,---,0.00,VWS V14.01,2013-09-27 20:56:00,
2013-09-27 17:00:00,81.2,71.3,29.87,North,360,12.0,17.0,72,0.00,,---,0.00,VWS V14.01,2013-09-27 21:00:00,
2013-09-27 17:01:00,81.2,71.3,29.87,North,360,5.0,9.0,72,0.00,,---,0.00,VWS V14.01,2013-09-27 21:01:00,
2013-09-27 17:06:00,81.1,71.2,29.87,North,360,12.0,17.0,72,0.00,,---,0.00,VWS V14.01,2013-09-27 21:06:00,
2013-09-27 17:10:00,80.8,70.9,29.88,North,360,7.0,17.0,72,0.00,,---,0.00,VWS V14.01,2013-09-27 21:10:00,
2013-09-27 17:11:00,80.8,70.9,29.88,North,360,12.0,15.0,72,0.00,,---,0.00,VWS V14.01,2013-09-27 21:11:00,
2013-09-27 17:16:00,80.4,71.0,29.87,North,360,4.0,17.0,73,0.00,,---,0.00,VWS V14.01,2013-09-27 21:16:00,
2013-09-27 17:20:00,80.3,70.5,29.87,North,360,4.0,17.0,72,0.00,,---,0.00,VWS V14.01,2013-09-27 21:20:00,
2013-09-27 17:21:00,80.3,70.9,29.88,North,360,7.0,7.0,73,0.00,,---,0.00,VWS V14.01,2013-09-27 21:21:00,
2013-09-27 17:26:00,80.3,70.9,29.87,North,360,8.0,12.0,73,0.00,,---,0.00,VWS V14.01,2013-09-27 21:26:00,
2013-09-27 17:30:00,80.2,70.4,29.88,North,360,11.0,17.0,72,0.00,,---,0.00,VWS V14.01,2013-09-27 21:30:00,
2013-09-27 17:31:00,80.2,69.9,29.87,North,360,5.0,11.0,71,0.00,,---,0.00,VWS V14.01,2013-09-27 21:31:00,
2013-09-27 17:36:00,80.2,70.4,29.88,North,360,8.0,12.0,72,0.00,,---,0.00,VWS V14.01,2013-09-27 21:36:00,
2013-09-27 17:40:00,80.2,70.8,29.88,North,360,4.0,12.0,73,0.00,,---,0.00,VWS V14.01,2013-09-27 21:40:00,
2013-09-27 17:41:00,80.2,70.8,29.88,North,360,4.0,7.0,73,0.00,,---,0.00,VWS V14.01,2013-09-27 21:41:00,
2013-09-27 17:46:00,80.2,70.4,29.88,North,360,5.0,16.0,72,0.00,,---,0.00,VWS V14.01,2013-09-27 21:46:00,
2013-09-27 17:50:00,80.2,69.9,29.88,North,360,9.0,16.0,71,0.00,,---,0.00,VWS V14.01,2013-09-27 21:50:00,
2013-09-27 17:51:00,80.2,69.9,29.88,North,360,7.0,12.0,71,0.00,,---,0.00,VWS V14.01,2013-09-27 21:51:00,
2013-09-27 17:56:00,80.1,69.4,29.88,North,360,5.0,14.0,70,0.00,,---,0.00,VWS V14.01,2013-09-27 21:56:00,
2013-09-27 18:00:00,80.1,69.9,29.88,North,360,5.0,14.0,71,0.00,,---,0.00,VWS V14.01,2013-09-27 22:00:00,
2013-09-27 18:01:00,80.1,70.3,29.88,North,360,8.0,9.0,72,0.00,,---,0.00,VWS V14.01,2013-09-27 22:01:00,
2013-09-27 18:06:00,80.1,70.3,29.88,North,360,7.0,9.0,72,0.00,,---,0.00,VWS V14.01,2013-09-27 22:06:00,
2013-09-27 18:10:00,80.0,69.8,29.88,North,360,4.0,10.0,71,0.00,,---,0.00,VWS V14.01,2013-09-27 22:10:00,
2013-09-27 18:11:00,80.0,69.8,29.88,North,360,4.0,4.0,71,0.00,,---,0.00,VWS V14.01,2013-09-27 22:11:00,
2013-09-27 18:16:00,79.8,69.6,29.89,North,360,6.0,16.0,71,0.00,,---,0.00,VWS V14.01,2013-09-27 22:16:00,
2013-09-27 18:20:00,79.6,69.4,29.89,North,360,4.0,16.0,71,0.00,,---,0.00,VWS V14.01,2013-09-27 22:20:00,
2013-09-27 18:21:00,79.6,69.4,29.89,North,360,10.0,10.0,71,0.00,,---,0.00,VWS V14.01,2013-09-27 22:21:00,
2013-09-27 18:26:00,79.4,69.6,29.89,North,360,9.0,11.0,72,0.00,,---,0.00,VWS V14.01,2013-09-27 22:26:00,
2013-09-27 18:30:00,79.3,69.9,29.89,North,360,3.0,11.0,73,0.00,,---,0.00,VWS V14.01,2013-09-27 22:30:00,
2013-09-27 18:31:00,79.3,69.5,29.89,North,360,5.0,6.0,72,0.00,,---,0.00,VWS V14.01,2013-09-27 22:31:00,
2013-09-27 18:36:00,79.1,69.7,29.89,North,360,6.0,8.0,73,0.00,,---,0.00,VWS V14.01,2013-09-27 22:36:00,
2013-09-27 18:40:00,78.9,69.5,29.89,North,360,4.0,8.0,73,0.00,,---,0.00,VWS V14.01,2013-09-27 22:40:00,
2013-09-27 18:41:00,78.9,69.9,29.89,North,360,4.0,4.0,74,0.00,,---,0.00,VWS V14.01,2013-09-27 22:41:00,
2013-09-27 18:46:00,78.8,69.8,29.89,North,360,8.0,12.0,74,0.00,,---,0.00,VWS V14.01,2013-09-27 22:46:00,
2013-09-27 18:50:00,78.7,69.7,29.89,North,360,7.0,12.0,74,0.00,,---,0.00,VWS V14.01,2013-09-27 22:50:00,
2013-09-27 18:51:00,78.7,69.7,29.89,North,360,5.0,8.0,74,0.00,,---,0.00,VWS V14.01,2013-09-27 22:51:00,
2013-09-27 18:56:00,78.6,70.0,29.89,North,360,4.0,8.0,75,0.00,,---,0.00,VWS V14.01,2013-09-27 22:56:00,
2013-09-27 19:00:00,78.5,69.9,29.89,North,360,1.0,8.0,75,0.00,,---,0.00,VWS V14.01,2013-09-27 23:00:00,
2013-09-27 19:01:00,78.5,69.9,29.89,North,360,1.0,2.0,75,0.00,,---,0.00,VWS V14.01,2013-09-27 23:01:00,
2013-09-27 19:06:00,78.4,70.2,29.89,North,360,3.0,6.0,76,0.00,,---,0.00,VWS V14.01,2013-09-27 23:06:00,
2013-09-27 19:10:00,78.2,70.0,29.90,North,360,4.0,4.0,76,0.00,,---,0.00,VWS V14.01,2013-09-27 23:10:00,
2013-09-27 19:11:00,78.2,70.0,29.90,North,360,4.0,4.0,76,0.00,,---,0.00,VWS V14.01,2013-09-27 23:11:00,
2013-09-27 19:16:00,78.1,69.9,29.89,North,360,5.0,6.0,76,0.00,,---,0.00,VWS V14.01,2013-09-27 23:16:00,
2013-09-27 19:20:00,78.0,69.8,29.90,North,360,4.0,7.0,76,0.00,,---,0.00,VWS V14.01,2013-09-27 23:20:00,
2013-09-27 19:21:00,77.9,69.7,29.90,North,360,3.0,4.0,76,0.00,,---,0.00,VWS V14.01,2013-09-27 23:21:00,
2013-09-27 19:26:00,77.9,70.1,29.90,North,360,4.0,6.0,77,0.00,,---,0.00,VWS V14.01,2013-09-27 23:26:00,
2013-09-27 19:30:00,77.9,70.1,29.90,North,360,5.0,7.0,77,0.00,,---,0.00,VWS V14.01,2013-09-27 23:30:00,
2013-09-27 19:31:00,77.8,70.0,29.90,North,360,4.0,5.0,77,0.00,,---,0.00,VWS V14.01,2013-09-27 23:31:00,
2013-09-27 19:36:00,77.8,70.0,29.90,North,360,3.0,6.0,77,0.00,,---,0.00,VWS V14.01,2013-09-27 23:36:00,
2013-09-27 19:40:00,77.7,70.3,29.90,North,360,4.0,6.0,78,0.00,,---,0.00,VWS V14.01,2013-09-27 23:40:00,
2013-09-27 19:41:00,77.7,70.3,29.90,North,360,3.0,4.0,78,0.00,,---,0.00,VWS V14.01,2013-09-27 23:41:00,
2013-09-27 19:46:00,77.6,70.2,29.90,North,360,4.0,7.0,78,0.00,,---,0.00,VWS V14.01,2013-09-27 23:46:00,
2013-09-27 19:50:00,77.5,70.1,29.90,North,360,5.0,7.0,78,0.00,,---,0.00,VWS V14.01,2013-09-27 23:50:00,
2013-09-27 19:51:00,77.5,70.1,29.90,North,360,4.0,5.0,78,0.00,,---,0.00,VWS V14.01,2013-09-27 23:51:00,
2013-09-27 19:56:00,77.4,70.0,29.90,North,360,4.0,5.0,78,0.00,,---,0.00,VWS V14.01,2013-09-27 23:56:00,
2013-09-27 20:00:00,77.3,69.9,29.91,North,360,5.0,10.0,78,0.00,,---,0.00,VWS V14.01,2013-09-28 00:00:00,
2013-09-27 20:01:00,77.3,69.9,29.91,North,360,3.0,5.0,78,0.00,,---,0.00,VWS V14.01,2013-09-28 00:01:00,
2013-09-27 20:06:00,77.3,70.3,29.91,North,360,1.0,7.0,79,0.00,,---,0.00,VWS V14.01,2013-09-28 00:06:00,
2013-09-27 20:10:00,77.2,70.2,29.91,North,360,4.0,7.0,79,0.00,,---,0.00,VWS V14.01,2013-09-28 00:10:00,
2013-09-27 20:11:00,77.2,70.2,29.91,North,360,3.0,4.0,79,0.00,,---,0.00,VWS V14.01,2013-09-28 00:11:00,
2013-09-27 20:16:00,77.1,70.5,29.91,North,360,4.0,6.0,80,0.00,,---,0.00,VWS V14.01,2013-09-28 00:16:00,
2013-09-27 20:20:00,77.1,70.5,29.91,North,360,3.0,7.0,80,0.00,,---,0.00,VWS V14.01,2013-09-28 00:20:00,
2013-09-27 20:21:00,77.0,70.4,29.91,North,360,3.0,4.0,80,0.00,,---,0.00,VWS V14.01,2013-09-28 00:21:00,
2013-09-27 20:26:00,77.0,70.4,29.91,North,360,5.0,6.0,80,0.00,,---,0.00,VWS V14.01,2013-09-28 00:26:00,
2013-09-27 20:30:00,76.9,70.3,29.92,North,360,3.0,10.0,80,0.00,,---,0.00,VWS V14.01,2013-09-28 00:30:00,
2013-09-27 20:31:00,76.9,70.3,29.92,North,360,5.0,5.0,80,0.00,,---,0.00,VWS V14.01,2013-09-28 00:31:00,
2013-09-27 20:36:00,76.8,70.5,29.92,North,360,2.0,6.0,81,0.00,,---,0.00,VWS V14.01,2013-09-28 00:36:00,
2013-09-27 20:40:00,76.7,70.4,29.92,North,360,5.0,7.0,81,0.00,,---,0.00,VWS V14.01,2013-09-28 00:40:00,
2013-09-27 20:41:00,76.6,70.3,29.92,North,360,4.0,5.0,81,0.00,,---,0.00,VWS V14.01,2013-09-28 00:41:00,
2013-09-27 20:46:00,76.5,70.6,29.92,North,360,3.0,8.0,82,0.00,,---,0.00,VWS V14.01,2013-09-28 00:46:00,
2013-09-27 20:50:00,76.5,70.6,29.93,North,360,2.0,8.0,82,0.00,,---,0.00,VWS V14.01,2013-09-28 00:50:00,
2013-09-27 20:51:00,76.5,70.6,29.93,North,360,1.0,3.0,82,0.00,,---,0.00,VWS V14.01,2013-09-28 00:51:00,
2013-09-27 20:56:00,76.4,70.5,29.93,North,360,8.0,9.0,82,0.00,,---,0.00,VWS V14.01,2013-09-28 00:56:00,
2013-09-27 21:00:00,76.4,70.9,29.93,North,360,1.0,12.0,83,0.00,,---,0.00,VWS V14.01,2013-09-28 01:00:00,
2013-09-27 21:01:00,76.4,70.9,29.93,North,360,3.0,3.0,83,0.00,,---,0.00,VWS V14.01,2013-09-28 01:01:00,
2013-09-27 21:06:00,76.3,70.8,29.94,North,360,3.0,6.0,83,0.00,,---,0.00,VWS V14.01,2013-09-28 01:06:00,
2013-09-27 21:10:00,76.2,71.0,29.93,North,360,5.0,6.0,84,0.00,,---,0.00,VWS V14.01,2013-09-28 01:10:00,
2013-09-27 21:11:00,76.2,71.0,29.94,North,360,4.0,5.0,84,0.00,,---,0.00,VWS V14.01,2013-09-28 01:11:00,
2013-09-27 21:16:00,76.0,71.2,29.94,North,360,13.0,15.0,85,0.00,,---,0.00,VWS V14.01,2013-09-28 01:16:00,
2013-09-27 21:20:00,75.7,70.5,29.94,North,360,8.0,15.0,84,0.00,,---,0.00,VWS V14.01,2013-09-28 01:20:00,
2013-09-27 21:21:00,75.7,70.5,29.94,North,360,12.0,12.0,84,0.00,,---,0.00,VWS V14.01,2013-09-28 01:21:00,
2013-09-27 21:26:00,75.5,70.7,29.94,North,360,7.0,13.0,85,0.00,,---,0.00,VWS V14.01,2013-09-28 01:26:00,
2013-09-27 21:30:00,75.3,70.5,29.94,North,360,8.0,13.0,85,0.00,,---,0.00,VWS V14.01,2013-09-28 01:30:00,
2013-09-27 21:31:00,75.3,70.5,29.94,North,360,8.0,11.0,85,0.00,,---,0.00,VWS V14.01,2013-09-28 01:31:00,
2013-09-27 21:36:00,75.1,70.6,29.94,North,360,3.0,11.0,86,0.00,,---,0.00,VWS V14.01,2013-09-28 01:36:00,
2013-09-27 21:40:00,75.0,70.5,29.94,North,360,4.0,11.0,86,0.00,,---,0.00,VWS V14.01,2013-09-28 01:40:00,
2013-09-27 21:41:00,75.0,70.5,29.95,North,360,5.0,5.0,86,0.00,,---,0.00,VWS V14.01,2013-09-28 01:41:00,
2013-09-27 21:46:00,74.8,70.7,29.94,North,360,3.0,9.0,87,0.00,,---,0.00,VWS V14.01,2013-09-28 01:46:00,
2013-09-27 21:50:00,74.8,70.7,29.95,North,360,5.0,9.0,87,0.00,,---,0.00,VWS V14.01,2013-09-28 01:50:00,
2013-09-27 21:51:00,74.8,70.7,29.95,North,360,4.0,5.0,87,0.00,,---,0.00,VWS V14.01,2013-09-28 01:51:00,
2013-09-27 21:56:00,74.8,70.7,29.95,North,360,4.0,7.0,87,0.00,,---,0.00,VWS V14.01,2013-09-28 01:56:00,
2013-09-27 22:00:00,74.8,71.0,29.95,North,360,7.0,8.0,88,0.00,,---,0.00,VWS V14.01,2013-09-28 02:00:00,
2013-09-27 22:01:00,74.8,71.0,29.95,North,360,4.0,7.0,88,0.00,,---,0.00,VWS V14.01,2013-09-28 02:01:00,
2013-09-27 22:06:00,74.8,71.0,29.95,North,360,8.0,12.0,88,0.00,,---,0.00,VWS V14.01,2013-09-28 02:06:00,
2013-09-27 22:10:00,74.7,71.2,29.95,North,360,4.0,12.0,89,0.00,,---,0.00,VWS V14.01,2013-09-28 02:10:00,
2013-09-27 22:11:00,74.7,71.2,29.95,North,360,8.0,8.0,89,0.00,,---,0.00,VWS V14.01,2013-09-28 02:11:00,
2013-09-27 22:16:00,74.6,71.2,29.95,North,360,7.0,17.0,89,0.00,,---,0.00,VWS V14.01,2013-09-28 02:16:00,
2013-09-27 22:20:00,74.5,71.4,29.95,North,360,4.0,17.0,90,0.00,,---,0.00,VWS V14.01,2013-09-28 02:20:00,
2013-09-27 22:21:00,74.6,71.5,29.96,North,360,8.0,8.0,90,0.00,,---,0.00,VWS V14.01,2013-09-28 02:21:00,
2013-09-27 22:26:00,74.5,71.4,29.95,North,360,4.0,9.0,90,0.00,,---,0.00,VWS V14.01,2013-09-28 02:26:00,
2013-09-27 22:30:00,74.4,71.3,29.96,North,360,4.0,9.0,90,0.00,,---,0.00,VWS V14.01,2013-09-28 02:30:00,
2013-09-27 22:31:00,74.4,71.3,29.96,North,360,4.0,5.0,90,0.00,,---,0.00,VWS V14.01,2013-09-28 02:31:00,
2013-09-27 22:36:00,74.3,71.2,29.95,North,360,4.0,5.0,90,0.00,,---,0.00,VWS V14.01,2013-09-28 02:36:00,
2013-09-27 22:40:00,74.3,71.2,29.95,North,360,4.0,5.0,90,0.00,,---,0.00,VWS V14.01,2013-09-28 02:40:00,
2013-09-27 22:41:00,74.3,71.2,29.95,North,360,3.0,4.0,90,0.00,,---,0.00,VWS V14.01,2013-09-28 02:41:00,
2013-09-27 22:46:00,74.3,71.2,29.95,North,360,0.0,5.0,90,0.00,,---,0.00,VWS V14.01,2013-09-28 02:46:00,
2013-09-27 22:50:00,74.3,71.2,29.95,North,360,0.0,5.0,90,0.00,,---,0.00,VWS V14.01,2013-09-28 02:50:00,
2013-09-27 22:51:00,74.3,71.2,29.95,North,360,0.0,0.0,90,0.00,,---,0.00,VWS V14.01,2013-09-28 02:51:00,
2013-09-27 22:56:00,74.2,71.1,29.95,North,360,5.0,5.0,90,0.00,,---,0.00,VWS V14.01,2013-09-28 02:56:00,
2013-09-27 23:00:00,74.2,71.1,29.95,North,360,1.0,6.0,90,0.00,,---,0.00,VWS V14.01,2013-09-28 03:00:00,
2013-09-27 23:01:00,74.2,71.1,29.95,North,360,0.0,1.0,90,0.00,,---,0.00,VWS V14.01,2013-09-28 03:01:00,
2013-09-27 23:06:00,74.2,71.1,29.95,North,360,3.0,6.0,90,0.00,,---,0.00,VWS V14.01,2013-09-28 03:06:00,
2013-09-27 23:10:00,74.3,71.5,29.95,North,360,5.0,10.0,91,0.00,,---,0.00,VWS V14.01,2013-09-28 03:10:00,
2013-09-27 23:11:00,74.3,71.5,29.95,North,360,9.0,9.0,91,0.00,,---,0.00,VWS V14.01,2013-09-28 03:11:00,
2013-09-27 23:16:00,74.5,71.4,29.95,North,360,4.0,11.0,90,0.00,,---,0.00,VWS V14.01,2013-09-28 03:16:00,
2013-09-27 23:20:00,74.6,71.5,29.95,North,360,2.0,11.0,90,0.00,,---,0.00,VWS V14.01,2013-09-28 03:20:00,
2013-09-27 23:21:00,74.6,71.5,29.95,North,360,3.0,3.0,90,0.00,,---,0.00,VWS V14.01,2013-09-28 03:21:00,
2013-09-27 23:26:00,74.6,71.5,29.95,North,360,1.0,7.0,90,0.00,,---,0.00,VWS V14.01,2013-09-28 03:26:00,
2013-09-27 23:30:00,74.5,71.4,29.95,North,360,2.0,8.0,90,0.00,,---,0.00,VWS V14.01,2013-09-28 03:30:00,
2013-09-27 23:31:00,74.5,71.4,29.95,North,360,2.0,2.0,90,0.00,,---,0.00,VWS V14.01,2013-09-28 03:31:00,
2013-09-27 23:36:00,74.5,71.7,29.96,North,360,0.0,7.0,91,0.00,,---,0.00,VWS V14.01,2013-09-28 03:36:00,
2013-09-27 23:40:00,74.4,71.6,29.95,North,360,5.0,7.0,91,0.00,,---,0.00,VWS V14.01,2013-09-28 03:40:00,
2013-09-27 23:41:00,74.4,71.6,29.95,North,360,4.0,5.0,91,0.00,,---,0.00,VWS V14.01,2013-09-28 03:41:00,
2013-09-27 23:46:00,74.3,71.5,29.95,North,360,3.0,7.0,91,0.00,,---,0.00,VWS V14.01,2013-09-28 03:46:00,
2013-09-27 23:50:00,74.2,71.4,29.95,North,360,3.0,7.0,91,0.00,,---,0.00,VWS V14.01,2013-09-28 03:50:00,
2013-09-27 23:51:00,74.2,71.4,29.95,North,360,5.0,6.0,91,0.00,,---,0.00,VWS V14.01,2013-09-28 03:51:00,
2013-09-27 23:56:00,74.1,71.3,29.95,North,360,1.0,6.0,91,0.00,,---,0.00,VWS V14.01,2013-09-28 03:56:00,